Skip Page Navigation
NASA JPL Caltech
NASA Logo - Jet Propulsion Laboratory + View the NASA Portal
+ Center for Near-Earth Object Studies
JPL Home Earth Solar System Stars & Galaxies Technology
JPL Solar System Dynamics
BODIES ORBITS EPHEMERIDES TOOLS PHYSICAL DATA DISCOVERY FAQ SITE MAP
IMPORTANT: The SSD Announcement email list is now available. Major changes are coming in the near future, including possible hostname and/or URL changes. To be notified of such changes, subscribe to this email list.

Please visit this page for more details.


JPL Small-Body Database Browser
Search: [ help ]  
413203 (2003 AM82)
Classification: Main-belt Asteroid          SPK-ID: 2413203
Ephemeris | Orbit Diagram | Orbital Elements | Mission Design | Physical Parameters | Discovery Circumstances ]

[ show orbit diagram ]
Orbital Elements at Epoch 2458600.5 (2019-Apr-27.0) TDB
Reference: JPL 13 (heliocentric ecliptic J2000)
 Element Value Uncertainty (1-sigma)   Units 
e .2237529433627503 2.9264e-07  
a 2.553183152536314 3.9051e-08 au
q 1.981900907212128 7.7168e-07 au
i 26.99003538438884 1.3908e-05 deg
node 70.58659675732673 1.6787e-05 deg
peri 36.48712240494522 3.6918e-05 deg
M 21.69592289252093 2.8462e-05 deg
tp 2458510.695725260759
(2019-Jan-27.19572526)
0.00011618 TDB
period 1490.120474076334
4.08
3.4187e-05
9.36e-08
d
yr
n .2415912043777196 5.5427e-09 deg/d
Q 3.124465397860501 4.7788e-08 au
  Orbit Determination Parameters
   # obs. used (total)      319  
   data-arc span      5898 days (16.15 yr)  
   first obs. used      2003-01-13  
   last obs. used      2019-03-08  
   planetary ephem.      DE431  
   SB-pert. ephem.      SB431-N16  
   condition code      0  
   norm. resid. RMS      .49878  
   source      ORB  
   producer      Otto Matic  
   solution date      2019-Jul-13 11:47:35  

Additional Information
 Earth MOID = 1.03607 au 
 Jupiter MOID = 2.26062 au 
 T_jup = 3.255 
[ show covariance matrix ]

Ephemeris | Orbit Diagram | Orbital Elements | Mission Design | Physical Parameters | Discovery Circumstances ]

Physical Parameter Table
Parameter Symbol Value Units Sigma Reference Notes
absolute magnitude H 15.6   n/a MPO455941  
diameter diameter 4.540 km 1.215 urn:nasa:pds:neowise_diameters_albedos::2.0[mainbelt] (http://adsabs.harvard.edu/abs/2015ApJ...814..117N)  
geometric albedo albedo 0.032   0.019 urn:nasa:pds:neowise_diameters_albedos::2.0[mainbelt] (http://adsabs.harvard.edu/abs/2016AJ....152...63N)  

413203 (2003 AM82)          Discovered 2003-Jan-13 by LINEAR at Socorro
Reference: Last Updated: 2014-11-10
Ephemeris | Orbit Diagram | Orbital Elements | Mission Design | Physical Parameters | Discovery Circumstances ]
ABOUT SSD CREDITS/AWARDS PRIVACY/COPYRIGHT GLOSSARY LINKS
FirstGov
(server date/time)  
NASA Home Page
Site Manager:   Ryan S. Park
Webmaster  Alan B. Chamberlin